Blythe, CA

10:12 AM PDT on June 26, 2017 (GMT -0700)
Blythe

Weather History for KBLH - April, 2014

Change the Weather History Date:

Wednesday, April 23, 2014

  Actual Average Record
Temperature  
Mean Temperature 74 °F -  
Max Temperature 88 °F 86 °F 100 °F (2012)
Min Temperature 61 °F 56 °F 37 °F (1998)
Cooling Degree Days 9    
Growing Degree Days 24 (Base 50)    
Moisture  
Dew Point 15 °F    
Average Humidity 11    
Maximum Humidity 29    
Minimum Humidity 6    
Precipitation  
Precipitation 0.00 in - - ()
Sea Level Pressure  
Sea Level Pressure 29.80 in    
Wind  
Wind Speed 6 mph (NW)    
Max Wind Speed 14 mph    
Max Gust Speed 25 mph    
Visibility 10 miles    
Events      
Averages and records for this station are not official NWS values.
T = Trace of Precipitation, MM = Missing Value Source: NWS Daily Summary

Daily Weather History Graph

Daily Weather History Graph

Search for Another Location

Airport or City:

Trip Planner

Search our weather history database for the weather conditions in past years. The results will help you decide how hot, cold, wet, or windy it might be!

Date:

Astronomy

Apr. 23, 2014 Rise Set
Actual Time 5:58 AM PDT 7:16 PM PDT
Civil Twilight 5:32 AM PDT 7:42 PM PDT
Nautical Twilight 5:01 AM PDT 8:13 PM PDT
Astronomical Twilight 4:29 AM PDT 8:45 PM PDT
Moon 2:15 AM PDT (4/23) 1:45 PM PDT (4/23)
Length of Visible Light 14h 09m
Length of Day
13h 17m
Waning Crescent, 34% of the Moon is Illuminated
Apr 23
Waning Crescent
Apr 28
New
May 6
First Quarter
May 14
Full
May 21
Last Quarter

Hourly Weather History & Observations

Time (PDT) Temp. Dew Point Humidity Pressure Visibility Wind Dir Wind Speed Gust Speed Precip Events Conditions
12:52 AM 68.0 °F 28.0 °F 22% 29.73 in 10.0 mi SSW 3.5 mph - N/A   Clear
1:52 AM 63.0 °F 30.0 °F 29% 29.74 in 10.0 mi SE 4.6 mph - N/A   Clear
3:52 AM 62.1 °F 16.0 °F 17% 29.75 in 10.0 mi NW 8.1 mph - N/A   Clear
4:52 AM 61.0 °F 12.9 °F 15% 29.76 in 10.0 mi West 5.8 mph - N/A   Clear
5:52 AM 61.0 °F 10.0 °F 13% 29.78 in 10.0 mi SW 5.8 mph - N/A   Clear
6:52 AM 64.0 °F 15.1 °F 15% 29.81 in 10.0 mi West 3.5 mph - N/A   Clear
7:52 AM 66.9 °F 16.0 °F 14% 29.82 in 10.0 mi West 3.5 mph - N/A   Clear
8:52 AM 71.1 °F 17.1 °F 13% 29.84 in 10.0 mi North - - N/A   Clear
10:52 AM 78.1 °F 15.1 °F 9% 29.86 in 10.0 mi NNW 11.5 mph 20.7 mph N/A   Clear
11:52 AM 81.0 °F 14.0 °F 8% 29.86 in 10.0 mi North 13.8 mph 20.7 mph N/A   Clear
12:52 PM 82.9 °F 12.9 °F 7% 29.84 in 10.0 mi NW 11.5 mph 25.3 mph N/A   Clear
1:52 PM 84.9 °F 12.0 °F 7% 29.83 in 10.0 mi NNW 8.1 mph - N/A   Clear
2:52 PM 86.0 °F 10.0 °F 6% 29.81 in 10.0 mi NW 9.2 mph 19.6 mph N/A   Clear
3:52 PM 87.1 °F 12.0 °F 6% 29.78 in 10.0 mi North 11.5 mph 17.3 mph N/A   Clear
4:52 PM 86.0 °F 12.9 °F 7% 29.78 in 10.0 mi NNW 5.8 mph - N/A   Clear
5:52 PM 84.9 °F 12.9 °F 7% 29.77 in 10.0 mi North 10.4 mph - N/A   Clear
6:52 PM 84.0 °F 12.0 °F 7% 29.77 in 10.0 mi WNW 4.6 mph - N/A   Clear
7:52 PM 79.0 °F 21.0 °F 12% 29.79 in 10.0 mi Calm Calm - N/A   Clear
8:52 PM 77.0 °F 12.0 °F 8% 29.81 in 10.0 mi West 6.9 mph - N/A   Clear
9:52 PM 73.9 °F 10.9 °F 9% 29.83 in 10.0 mi NNW 5.8 mph - N/A   Clear
10:52 PM 73.0 °F 12.9 °F 10% 29.84 in 10.0 mi West 4.6 mph - N/A   Clear
11:52 PM 69.1 °F 12.0 °F 11% 29.85 in 10.0 mi NW 4.6 mph - N/A   Clear